Fort Morgan, CO

11:25 PM MDT on April 26, 2017 (GMT -0600)
Fort Morgan

Weather History for KFMM - November, 2013

Change the Weather History Date:

Saturday, November 30, 2013

  Actual Average (KAKO) Record (KAKO)
Temperature  
Mean Temperature 40 °F -  
Max Temperature 56 °F 41 °F 69 °F (1999)
Min Temperature 23 °F 16 °F -8 °F (1985)
Degree Days  
Heating Degree Days 26    
Moisture  
Dew Point 21 °F    
Average Humidity 55    
Maximum Humidity 90    
Minimum Humidity 21    
Precipitation  
Precipitation 0.00 in - - ()
Sea Level Pressure  
Sea Level Pressure 30.15 in    
Wind  
Wind Speed 5 mph (West)    
Max Wind Speed 14 mph    
Max Gust Speed -    
Visibility 10 miles    
Events      
Averages and records for this station are not official NWS values.
T = Trace of Precipitation, MM = Missing Value Source: NWS Daily Summary

Daily Weather History Graph

Daily Weather History Graph

Search for Another Location

Airport or City:

Trip Planner

Search our weather history database for the weather conditions in past years. The results will help you decide how hot, cold, wet, or windy it might be!

Date:

Astronomy

Nov. 30, 2013 Rise Set
Actual Time 6:58 AM MST 4:29 PM MST
Civil Twilight 6:27 AM MST 4:59 PM MST
Nautical Twilight 5:54 AM MST 5:33 PM MST
Astronomical Twilight 5:21 AM MST 6:06 PM MST
Moon 4:11 AM MST (11/30) 2:55 PM MST (11/30)
Length of Visible Light 10h 32m
Length of Day
9h 31m
Waning Crescent, 7% of the Moon is Illuminated
Nov 30
Waning Crescent
Dec 2
New
Dec 9
First Quarter
Dec 17
Full
Dec 25
Last Quarter

Hourly Weather History & Observations

Time (MST) Temp. Windchill Dew Point Humidity Pressure Visibility Wind Dir Wind Speed Gust Speed Precip Events Conditions
12:15 AM 31.1 °F 27.7 °F 21.4 °F 67% 30.15 in 10.0 mi WSW 3.5 mph - N/A   Clear
12:35 AM 31.6 °F 27.0 °F 21.7 °F 67% 30.15 in 10.0 mi West 4.6 mph - N/A   Clear
12:55 AM 30.9 °F 27.5 °F 21.4 °F 68% 30.14 in 10.0 mi WSW 3.5 mph - N/A   Clear
1:15 AM 27.5 °F 20.2 °F 20.7 °F 75% 30.15 in 10.0 mi West 6.9 mph - N/A   Clear
1:35 AM 28.6 °F 19.9 °F 21.7 °F 76% 30.14 in 10.0 mi West 9.2 mph - N/A   Clear
1:55 AM 29.3 °F 20.8 °F 22.1 °F 75% 30.15 in 10.0 mi West 9.2 mph - N/A   Clear
2:15 AM 28.9 °F 20.4 °F 21.9 °F 75% 30.15 in 10.0 mi West 9.2 mph - N/A   Clear
2:35 AM 28.0 °F 19.3 °F 21.7 °F 77% 30.16 in 10.0 mi West 9.2 mph - N/A   Clear
2:55 AM 26.2 °F 19.6 °F 21.0 °F 81% 30.15 in 10.0 mi SW 5.8 mph - N/A   Clear
3:15 AM 23.9 °F 18.0 °F 20.3 °F 86% 30.15 in 10.0 mi WSW 4.6 mph - N/A   Clear
3:35 AM 24.8 °F 15.3 °F 21.0 °F 86% 30.15 in 10.0 mi West 9.2 mph - N/A   Clear
3:55 AM 24.4 °F 12.4 °F 20.8 °F 86% 30.15 in 10.0 mi WNW 13.8 mph - N/A   Clear
4:15 AM 27.1 °F 17.5 °F 21.9 °F 81% 30.15 in 10.0 mi WNW 10.4 mph - N/A   Clear
4:35 AM 27.7 °F 19.6 °F 21.9 °F 79% 30.15 in 10.0 mi West 8.1 mph - N/A   Clear
4:55 AM 28.4 °F 21.2 °F 22.3 °F 78% 30.15 in 10.0 mi West 6.9 mph - N/A   Clear
5:15 AM 27.1 °F 17.5 °F 22.1 °F 81% 30.15 in 10.0 mi West 10.4 mph - N/A   Clear
5:35 AM 25.3 °F 21.1 °F 21.6 °F 86% 30.15 in 10.0 mi SW 3.5 mph - N/A   Clear
5:55 AM 23.9 °F 15.0 °F 21.0 °F 89% 30.15 in 10.0 mi West 8.1 mph - N/A   Clear
6:15 AM 24.8 °F 16.1 °F 21.9 °F 89% 30.16 in 10.0 mi West 8.1 mph - N/A   Clear
6:35 AM 24.6 °F 16.7 °F 21.9 °F 89% 30.16 in 10.0 mi West 6.9 mph - N/A   Clear
6:55 AM 23.7 °F 15.6 °F 21.2 °F 90% 30.17 in 10.0 mi West 6.9 mph - N/A   Clear
7:15 AM 24.8 °F 16.9 °F 21.2 °F 86% 30.17 in 10.0 mi West 6.9 mph - N/A   Clear
7:35 AM 25.7 °F 16.4 °F 22.1 °F 86% 30.18 in 10.0 mi West 9.2 mph - N/A   Clear
7:55 AM 27.3 °F 19.9 °F 23.4 °F 85% 30.18 in 10.0 mi West 6.9 mph - N/A   Clear
8:15 AM 29.3 °F 20.8 °F 23.9 °F 80% 30.18 in 10.0 mi West 9.2 mph - N/A   Clear
8:35 AM 32.0 °F 24.2 °F 24.3 °F 73% 30.18 in 10.0 mi West 9.2 mph - N/A   Clear
8:55 AM 34.2 °F 28.2 °F 25.5 °F 71% 30.18 in 10.0 mi West 6.9 mph - N/A   Clear
9:15 AM 36.1 °F 30.6 °F 25.7 °F 66% 30.18 in 10.0 mi West 6.9 mph - N/A   Clear
9:35 AM 39.2 °F 33.6 °F 25.7 °F 58% 30.19 in 10.0 mi West 8.1 mph - N/A   Clear
9:55 AM 41.2 °F 36.0 °F 25.2 °F 53% 30.19 in 10.0 mi West 8.1 mph - N/A   Clear
10:15 AM 42.6 °F 39.0 °F 24.8 °F 49% 30.19 in 10.0 mi West 5.8 mph - N/A   Clear
10:35 AM 44.1 °F 39.0 °F 25.0 °F 47% 30.19 in 10.0 mi West 9.2 mph - N/A   Clear
10:55 AM 46.8 °F - 25.0 °F 43% 30.19 in 10.0 mi West 5.8 mph - N/A   Clear
11:15 AM 48.7 °F - 23.2 °F 37% 30.17 in 10.0 mi WSW 4.6 mph - N/A   Clear
11:35 AM 50.2 °F - 21.7 °F 33% 30.17 in 10.0 mi Calm Calm - N/A   Clear
11:55 AM 52.9 °F - 20.7 °F 28% 30.17 in 10.0 mi Calm Calm - N/A   Clear
12:15 PM 52.9 °F - 20.1 °F 28% 30.16 in 10.0 mi Calm Calm - N/A   Clear
12:35 PM 54.1 °F - 19.4 °F 26% 30.15 in 10.0 mi Calm Calm - N/A   Clear
12:55 PM 54.1 °F - 19.2 °F 25% 30.15 in 10.0 mi Calm Calm - N/A   Clear
1:15 PM 54.7 °F - 19.4 °F 25% 30.14 in 10.0 mi Calm Calm - N/A   Clear
1:35 PM 56.1 °F - 17.4 °F 22% 30.13 in 10.0 mi Calm Calm - N/A   Clear
1:55 PM 56.5 °F - 16.9 °F 21% 30.12 in 10.0 mi Calm Calm - N/A   Clear
2:15 PM 55.9 °F - 16.7 °F 21% 30.12 in 10.0 mi Calm Calm - N/A   Clear
2:35 PM 56.5 °F - 16.9 °F 21% 30.11 in 10.0 mi Calm Calm - N/A   Clear
2:55 PM 56.3 °F - 16.5 °F 21% 30.11 in 10.0 mi Calm Calm - N/A   Clear
3:15 PM 55.8 °F - 16.7 °F 22% 30.11 in 10.0 mi Calm Calm - N/A   Clear
3:35 PM 55.0 °F - 18.0 °F 23% 30.11 in 10.0 mi ESE 3.5 mph - N/A   Clear
3:55 PM 53.4 °F - 19.0 °F 26% 30.11 in 10.0 mi SE 3.5 mph - N/A   Clear
4:15 PM 51.8 °F - 18.3 °F 27% 30.11 in 10.0 mi Calm Calm - N/A   Clear
4:35 PM 50.0 °F - 18.1 °F 28% 30.12 in 10.0 mi Calm Calm - N/A   Clear
4:55 PM 47.3 °F - 17.6 °F 31% 30.12 in 10.0 mi Calm Calm - N/A   Clear
5:15 PM 48.0 °F - 17.6 °F 30% 30.12 in 10.0 mi Calm Calm - N/A   Clear
5:35 PM 47.3 °F - 17.4 °F 30% 30.13 in 10.0 mi East 3.5 mph - N/A   Clear
5:55 PM 47.5 °F - 17.4 °F 30% 30.13 in 10.0 mi NE 3.5 mph - N/A   Clear
6:15 PM 47.3 °F - 17.4 °F 30% 30.13 in 10.0 mi NE 3.5 mph - N/A   Clear
6:35 PM 40.1 °F 36.1 °F 18.7 °F 42% 30.13 in 10.0 mi NNE 5.8 mph - N/A   Clear
6:55 PM 37.8 °F 29.8 °F 20.3 °F 49% 30.14 in 10.0 mi North 12.7 mph - N/A   Clear
7:15 PM 37.0 °F 29.8 °F 20.3 °F 51% 30.14 in 10.0 mi North 10.4 mph - N/A   Clear
7:35 PM 36.9 °F 29.1 °F 20.1 °F 51% 30.14 in 10.0 mi North 11.5 mph - N/A   Clear
7:55 PM 38.3 °F 30.9 °F 20.3 °F 48% 30.14 in 10.0 mi North 11.5 mph - N/A   Clear
8:15 PM 33.8 °F 29.6 °F 20.1 °F 57% 30.14 in 10.0 mi SE 4.6 mph - N/A   Clear
8:35 PM 32.7 °F - 19.9 °F 59% 30.15 in 10.0 mi Calm Calm - N/A   Clear
8:55 PM 34.7 °F - 20.3 °F 56% 30.15 in 10.0 mi Calm Calm - N/A   Clear
9:15 PM 35.4 °F 32.6 °F 20.3 °F 54% 30.15 in 10.0 mi SE 3.5 mph - N/A   Clear
9:35 PM 35.6 °F - 20.3 °F 54% 30.15 in 10.0 mi Calm Calm - N/A   Clear
9:55 PM 36.5 °F - 20.3 °F 52% 30.16 in 10.0 mi Calm Calm - N/A   Clear
10:15 PM 36.7 °F 32.9 °F 20.3 °F 52% 30.16 in 10.0 mi NE 4.6 mph - N/A   Clear
10:35 PM 33.8 °F - 19.6 °F 56% 30.15 in 10.0 mi Calm Calm - N/A   Clear
10:55 PM 34.7 °F - 21.0 °F 57% 30.15 in 10.0 mi Calm Calm - N/A   Clear
11:15 PM 36.5 °F - 21.0 °F 54% 30.15 in 10.0 mi Calm Calm - N/A   Clear
11:35 PM 36.0 °F 33.3 °F 20.5 °F 53% 30.15 in 10.0 mi NNE 3.5 mph - N/A   Clear
11:55 PM 31.8 °F - 20.1 °F 62% 30.14 in 10.0 mi Calm Calm - N/A   Clear